Flag for Turkey Weather past 2 weeks in Mersin, Turkey

Now
55 °F

Passing clouds.


Feels Like: 52 °F
Forecast: 44 / 60 °F
Wind: 12 mph from Northeast

Location: Adana / Sakirpasa

Current Time: Jan 25, 2015 at 6:40:45 AM

Latest Report: Jan 25, 2015 at 5:50 AM


Visibility: N/A

Pressure: 30.04 "Hg

Humidity: 38%

Dew point: 30 °F

Location of MersinLocation

Historic Weather in Mersin — Graph

°F

Mersin temperature yesterday

Maximum temperature yesterday: 68 °F (at 11:50 AM)
Minimum temperature yesterday: 45 °F (at 5:20 AM)
Average temperature yesterday: 57 °F

Past Weeks' High & Low Weather Summary

 TemperatureHumidityPressure
High68 °F (Jan 22, 1:20 PM)93% (Jan 16, 4:50 AM)30.39 "Hg (Jan 16, 4:50 AM)
Low27 °F (Jan 10, 5:50 AM)23% (Jan 14, 11:50 AM)30.01 "Hg (Jan 15, 11:50 AM)
Average48 °F60%30.18 "Hg
* Reported Jan 10 4:20 AM — Jan 25 4:50 AM, Mersin, Weather by CustomWeather, © 2014

Note: Actual official high and low records may vary slightly from our data, if they occured in-between our weather recording intervals... More about our weather records

Advertising

Mersin weather history for previous 24 hours

 ConditionsComfort  
Time TempWeatherWind HumidityBarometerVisibility
4:50 AM
Jan 25
55 °FPassing clouds.12 mph41%30.04 "HgN/A
4:20 AM55 °FPassing clouds.13 mph41%30.04 "HgN/A
3:50 AM55 °FPassing clouds.13 mph41%30.04 "HgN/A
3:20 AM55 °FPassing clouds.14 mph41%30.04 "HgN/A
2:50 AM55 °FPassing clouds.13 mph41%30.04 "HgN/A
2:20 AM57 °FPassing clouds.13 mph39%30.04 "HgN/A
1:50 AM55 °FPassing clouds.12 mph41%30.04 "HgN/A
1:20 AM57 °FPassing clouds.13 mph41%30.04 "HgN/A
12:50 AM57 °FPassing clouds.12 mph41%30.07 "HgN/A
12:20 AM55 °FPassing clouds.12 mph44%30.07 "HgN/A
11:50 PM
Jan 24
55 °FPassing clouds.12 mph44%30.07 "HgN/A
11:20 PM57 °FPassing clouds.10 mph41%30.07 "HgN/A
10:50 PM55 °FPassing clouds.10 mph47%30.07 "HgN/A
10:20 PM54 °FPassing clouds.10 mph51%30.07 "HgN/A
9:50 PM55 °FPassing clouds.10 mph47%30.07 "HgN/A
9:20 PM57 °FPassing clouds.10 mph44%30.07 "HgN/A
8:50 PM55 °FHaze.9 mph47%30.07 "Hg2 mi
8:20 PM54 °FHaze.9 mph51%30.07 "Hg2 mi
7:50 PM55 °FHaze.12 mph47%30.07 "Hg2 mi
7:20 PM54 °FHaze.8 mph51%30.04 "Hg2 mi
6:50 PM55 °FHaze.8 mph51%30.04 "Hg2 mi
6:20 PM55 °FPassing clouds.9 mph51%30.04 "Hg4 mi
5:50 PM59 °FPassing clouds.10 mph45%30.04 "Hg5 mi
5:20 PM59 °FPassing clouds.9 mph42%30.01 "HgN/A
4:50 PM63 °FPassing clouds.9 mph34%30.01 "HgN/A
4:20 PM63 °FPassing clouds.9 mph34%30.01 "HgN/A
3:50 PM66 °FPassing clouds.9 mph28%30.01 "HgN/A
3:20 PM68 °FPassing clouds.12 mph26%30.01 "HgN/A
2:50 PM68 °FPassing clouds.12 mph26%30.01 "HgN/A
2:20 PM68 °FPassing clouds.10 mph24%30.01 "HgN/A
1:50 PM68 °FPassing clouds.13 mph24%30.01 "HgN/A
1:20 PM68 °FPassing clouds.12 mph24%30.01 "HgN/A
12:50 PM68 °FPassing clouds.12 mph26%30.01 "HgN/A
12:20 PM68 °FPassing clouds.13 mph28%30.04 "HgN/A
11:50 AM68 °FPassing clouds.13 mph26%30.04 "HgN/A
11:20 AM66 °FPassing clouds.15 mph28%30.04 "HgN/A
10:50 AM64 °FPassing clouds.15 mph30%30.07 "HgN/A
10:20 AM64 °FPassing clouds.15 mph30%30.07 "HgN/A
9:50 AM63 °FPassing clouds.15 mph30%30.09 "HgN/A
9:20 AM59 °FPassing clouds.12 mph34%30.07 "HgN/A
8:50 AM57 °FPassing clouds.12 mph36%30.07 "HgN/A
8:20 AM55 °FPassing clouds.8 mph38%30.09 "HgN/A
7:50 AM52 °FPassing clouds.10 mph47%30.07 "HgN/A
7:20 AM46 °FHaze.8 mph57%30.09 "Hg2 mi
6:50 AM46 °FHaze.8 mph53%30.07 "Hg2 mi
6:20 AM46 °FHaze.7 mph53%30.07 "Hg2 mi
Weather by CustomWeather, © 2014

See weather overviewHow to use our weather pages